Wind_Speed
30 30 32 31 29 29 36 44 52 54 51 51 51 53 55 61 68 72 72 72 69 68 70 73 75 72 70 68 66 61 59 58 56 56 55 54 55 55 54 50 51 52 51 48 45 41 43 41 39
32 34 35 34 32 33 43 46 46 40 43 46 47 49 51 53 58 61 65 67 66 63 64 63 65 61 61 60 58 54 52 52 53 53 51 51 51 51 51 49 45 41 43 43 43 40 41 42 41
37 33 29 32 36 42 46 49 48 43 40 42 40 40 43 48 54 55 54 55 52 50 51 56 55 52 53 55 57 52 50 49 48 47 48 48 46 45 46 45 42 41 42 40 39 39 44 44 44
43 41 38 37 42 46 48 50 47 47 46 43 37 31 33 45 47 49 51 53 49 43 43 49 51 51 52 55 55 53 49 49 46 46 47 47 46 48 46 45 43 44 44 42 42 42 44 44 45
45 45 41 43 48 48 52 55 50 48 46 42 38 38 38 43 46 47 50 52 48 44 44 45 47 50 52 55 55 54 50 49 48 48 48 48 48 49 49 45 43 45 46 44 44 44 45 45 43
47 47 42 44 49 49 52 54 49 46 41 43 41 42 44 41 47 50 49 50 50 49 51 51 51 51 53 55 57 58 53 51 51 51 50 51 49 50 49 45 45 48 47 46 45 46 47 46 47
52 48 46 46 50 53 55 51 50 44 45 46 45 43 45 40 45 51 54 52 49 50 53 56 56 54 54 56 58 59 57 51 51 50 50 49 48 49 49 48 47 50 48 48 50 50 49 49 48
56 51 46 47 49 51 55 50 49 47 50 54 53 45 42 45 43 52 54 55 55 47 51 56 58 58 59 59 58 60 59 51 48 50 51 49 47 48 51 49 50 51 50 50 50 50 50 53 52
60 52 47 48 50 51 60 56 53 52 56 60 60 59 57 53 51 51 54 57 59 64 60 60 60 62 59 58 60 61 61 56 51 59 54 50 50 49 51 52 53 51 52 51 49 50 48 49 50
61 57 54 49 52 52 56 57 61 60 62 64 63 62 60 58 60 60 57 57 59 64 65 65 63 66 67 65 64 61 60 61 60 54 52 50 49 50 53 52 52 52 53 51 49 50 57 60 56
63 55 53 51 53 54 54 55 56 58 59 60 66 69 66 63 62 58 60 62 60 65 66 67 66 67 68 65 65 62 61 63 59 49 51 52 53 54 54 50 52 49 47 50 51 58 62 59 50
59 60 60 58 58 58 56 54 58 61 60 62 66 68 69 69 65 65 64 62 62 63 67 68 67 67 66 63 59 57 60 60 64 55 55 55 52 53 52 51 46 47 49 52 57 60 60 46 39
68 63 64 65 65 63 62 60 60 59 59 64 66 69 69 71 68 63 57 57 63 68 66 70 72 70 68 65 62 61 61 63 63 59 58 58 57 55 49 46 45 47 51 56 60 59 46 39 34
73 67 65 66 67 67 64 64 63 61 68 65 67 62 66 68 70 69 68 65 64 68 70 69 71 76 70 65 62 63 65 64 64 60 56 51 48 48 47 42 42 48 54 58 59 42 35 34 29
74 72 66 69 72 70 69 63 66 70 70 69 66 68 70 65 71 71 74 72 67 70 70 72 69 71 76 72 64 60 64 64 60 56 45 42 42 42 45 41 45 49 55 60 49 35 30 32 27
78 76 74 78 80 78 73 60 72 74 70 66 71 74 76 66 70 70 71 69 68 70 74 70 72 69 66 62 65 63 59 62 54 39 39 39 42 45 41 42 46 50 58 58 42 34 39 30 26
86 85 87 84 88 87 81 69 73 78 76 69 72 77 80 77 78 71 69 66 71 71 77 73 74 77 74 72 64 59 57 57 49 42 45 39 41 37 40 44 49 51 56 55 34 37 42 34 33
88 87 85 84 91 88 83 72 73 78 77 76 79 81 83 82 80 74 72 71 73 73 75 82 75 75 79 78 70 58 56 55 50 49 40 37 38 35 41 49 51 55 56 43 30 42 45 38 36
89 91 90 88 93 93 90 75 78 80 83 85 87 88 88 81 75 76 76 74 70 73 72 76 79 78 76 78 71 60 55 56 53 51 41 39 43 38 43 48 52 56 57 35 32 47 47 38 35
94 93 91 91 95 93 92 78 82 88 88 91 92 92 89 77 74 71 72 72 69 71 71 71 73 80 78 76 76 72 59 56 54 50 42 46 40 38 41 48 49 54 50 31 35 45 43 34 39
91 92 92 91 96 94 95 86 88 91 94 92 97 90 77 71 69 68 69 71 69 66 69 69 69 72 76 84 80 79 64 57 55 49 46 49 43 41 41 46 48 50 39 28 37 38 38 34 37
90 97 95 95 98 97 101 101 93 97 92 95 89 77 70 68 66 68 68 66 63 59 62 63 62 62 66 68 68 63 57 56 57 50 50 45 45 43 44 46 49 50 32 28 36 41 42 40 38
98 103 106 108 109 110 102 104 82 97 86 83 79 74 67 63 62 59 55 55 54 53 56 57 57 56 56 54 56 56 56 56 57 49 44 44 42 44 43 48 46 42 31 29 35 41 42 46 44
109 110 110 111 111 108 104 98 87 96 83 71 72 70 65 62 56 51 50 47 49 45 44 46 46 49 52 55 54 51 56 55 53 53 50 45 41 44 49 50 46 42 34 35 35 38 41 44 49
110 110 111 112 111 109 107 95 91 81 70 68 66 64 56 52 49 46 46 38 37 36 38 38 41 46 46 54 56 56 57 57 57 50 46 45 48 45 46 44 48 35 36 40 39 36 42 46 51
112 111 112 110 104 103 99 79 70 66 63 63 58 48 44 45 44 42 39 30 33 33 34 33 37 42 46 49 56 54 49 49 46 41 43 45 40 38 44 46 42 39 37 42 43 40 39 41 47
105 108 109 103 92 81 67 67 61 59 56 50 41 40 39 38 39 38 31 32 33 35 40 39 41 48 46 48 47 49 38 39 33 36 37 36 42 42 41 41 44 39 38 41 43 39 41 43 42
100 94 92 86 75 67 56 57 56 50 46 40 37 35 36 36 37 33 32 36 37 40 49 47 40 48 48 43 42 40 41 32 29 32 32 39 39 34 37 42 42 41 39 40 40 38 38 36 37
86 82 80 78 74 64 51 41 43 41 38 35 35 37 40 41 39 35 39 38 37 41 50 49 44 48 46 40 35 37 36 35 31 33 36 43 45 45 38 41 43 42 37 37 37 37 34 32 35
78 78 74 65 62 55 39 35 35 36 34 38 41 45 45 46 41 40 39 38 37 40 48 52 49 50 48 41 41 36 35 35 38 42 47 53 53 50 45 41 42 41 34 34 36 33 28 32 30
Wind_Direction
284 287 281 283 283 278 278 278 279 280 282 279 281 278 276 272 269 267 265 264 265 264 264 265 267 267 267 267 268 269 268 268 268 269 269 269 270 272 272 273 273 277 279 279 278 285 283 283 279
291 285 286 290 286 279 278 278 274 286 285 281 283 284 283 281 277 274 273 270 269 266 263 259 260 260 262 263 262 262 263 265 265 266 267 267 269 271 271 271 274 278 278 280 282 283 282 284 278
294 294 284 286 285 277 275 276 280 281 286 285 284 286 284 282 277 275 273 270 266 263 259 255 253 255 255 255 256 256 259 261 264 266 266 268 271 270 271 271 272 281 284 285 286 284 284 286 285
295 291 290 295 288 281 275 273 276 277 275 276 282 297 295 280 282 279 274 267 259 258 260 262 254 251 255 256 254 253 257 260 263 265 268 270 271 272 275 276 276 279 291 290 290 289 289 287 289
295 287 284 284 288 285 278 273 272 278 282 289 286 279 286 291 284 277 271 265 261 253 254 254 255 253 254 255 257 256 254 259 263 266 268 268 270 271 274 278 277 284 288 287 289 290 288 290 290
293 294 287 284 282 287 274 273 275 280 294 288 285 282 281 283 287 282 279 273 263 258 253 253 253 254 253 256 261 261 255 256 261 264 269 270 270 269 273 275 279 288 287 285 288 288 288 285 291
290 292 282 278 277 280 281 274 272 285 289 290 290 285 281 275 279 281 279 272 265 264 263 257 252 252 253 254 258 263 260 257 260 268 273 269 275 269 271 276 281 289 286 286 290 289 288 286 287
291 291 280 276 279 285 284 288 282 284 285 284 287 282 278 273 273 273 276 278 272 266 268 261 258 256 256 257 259 262 263 263 262 271 276 269 265 269 275 278 285 287 287 290 290 288 286 288 285
289 285 280 277 276 283 286 292 287 287 288 288 291 289 280 275 273 273 269 269 272 273 275 269 260 261 256 257 259 261 265 264 263 269 273 271 274 278 280 282 286 286 290 290 286 287 284 284 278
286 290 281 282 282 285 291 294 292 287 285 287 284 283 285 285 277 271 274 269 268 267 273 275 272 266 261 262 259 258 259 259 259 268 269 272 276 278 280 284 285 289 291 285 290 289 291 287 280
289 285 278 279 283 285 288 288 286 290 288 282 284 286 286 285 284 279 277 275 269 265 265 266 266 264 265 262 260 260 263 266 265 266 267 272 276 278 279 281 287 287 286 291 296 294 295 290 281
286 287 277 277 281 282 285 286 283 280 282 287 285 282 283 283 283 277 275 277 275 266 261 263 261 260 262 263 259 260 263 266 268 269 272 273 275 276 282 284 284 284 289 297 299 297 301 283 279
285 281 283 275 280 279 280 281 284 288 289 286 286 282 282 285 287 284 276 271 264 266 262 259 260 260 260 260 262 265 267 268 269 270 274 274 275 276 279 280 281 287 295 299 300 301 285 267 268
278 279 278 276 273 275 277 282 287 285 285 285 285 293 291 285 283 280 280 271 264 258 259 261 260 257 258 258 260 265 268 268 271 271 273 273 272 277 276 281 285 295 297 301 304 292 269 256 241
274 283 278 276 273 272 275 282 284 284 285 289 291 294 292 283 282 283 280 278 265 258 255 255 253 255 255 255 260 262 265 268 271 276 270 269 270 276 280 284 290 294 301 304 303 261 233 241 234
274 275 275 277 277 278 278 280 282 285 288 288 284 283 290 284 287 279 279 272 266 255 254 256 252 251 254 260 258 258 263 268 270 262 265 266 272 276 279 285 291 303 303 302 292 241 232 230 208
272 273 275 275 275 275 278 281 282 283 288 289 278 281 286 285 288 279 275 268 261 257 252 253 254 255 256 259 261 257 259 263 255 253 258 266 273 277 284 287 299 303 304 303 275 229 229 223 203
273 274 273 272 274 276 278 283 284 285 289 289 286 285 285 285 286 280 277 272 262 256 253 250 250 252 253 257 259 257 252 255 248 251 256 266 271 280 288 288 302 304 304 294 254 219 228 224 208
272 273 273 273 274 276 279 285 287 287 288 286 285 284 286 283 280 278 272 271 265 261 259 253 252 248 250 254 255 253 249 249 252 253 263 265 270 280 290 291 300 304 306 278 235 220 230 227 223
275 273 274 274 274 279 280 285 286 287 286 285 285 287 285 282 279 273 269 267 264 258 258 257 253 249 249 247 250 251 250 246 250 254 264 267 271 282 286 291 295 299 306 267 225 220 235 230 211
274 274 273 275 280 284 283 285 286 285 283 286 286 283 282 278 273 269 266 265 262 256 255 255 253 248 247 245 247 251 248 244 248 253 252 262 271 277 286 289 293 299 300 254 222 223 236 233 212
276 277 278 279 280 283 285 288 284 283 287 287 283 282 276 273 270 267 266 263 257 253 249 248 248 245 242 242 242 238 232 238 242 247 246 259 266 271 280 289 292 296 283 237 226 223 230 230 228
282 281 282 282 282 284 287 285 285 290 290 285 279 279 279 276 271 266 263 259 254 250 246 243 240 237 233 230 226 224 229 235 239 241 246 257 266 270 279 287 288 300 263 244 235 231 234 233 230
280 281 281 281 282 284 284 286 290 289 287 277 278 280 281 277 271 265 257 252 251 243 239 236 231 225 221 216 214 222 228 233 236 242 248 256 266 272 279 280 286 291 253 242 239 240 240 237 231
279 279 280 281 282 283 282 285 286 283 282 281 280 278 273 266 263 256 253 243 238 233 225 221 217 209 208 210 213 223 230 236 243 248 253 257 263 275 276 276 287 276 248 242 241 242 243 242 242
277 277 278 281 282 281 283 284 277 281 280 277 273 265 255 253 249 244 241 228 228 218 212 200 202 202 211 212 220 221 236 242 251 255 261 264 264 266 273 283 277 272 245 245 246 249 247 242 236
273 275 279 280 280 278 278 279 281 281 277 270 260 250 243 239 237 236 232 215 211 207 193 189 194 202 208 216 227 237 246 245 248 256 261 270 266 266 271 275 279 260 242 246 249 253 251 247 243
277 278 278 278 278 280 281 280 280 273 264 257 244 233 224 220 225 229 207 207 204 201 194 194 195 209 210 221 228 232 237 244 252 260 265 265 278 266 276 279 273 256 239 244 252 257 260 249 240
272 269 269 272 277 278 279 274 266 258 252 244 228 216 211 211 219 211 200 203 208 205 200 202 198 204 206 214 219 231 233 238 242 258 259 261 268 262 279 276 268 249 235 243 255 259 257 244 247
270 274 273 272 273 276 271 254 249 243 231 224 214 209 210 214 213 202 198 203 204 206 205 204 200 203 208 208 215 208 207 230 241 253 253 250 260 264 274 283 263 236 232 245 257 261 250 239 245
Height
10797 10796 10795 10794 10793 10788 10777 10771 10771 10772 10778 10780 10779 10780 10782 10782 10781 10785 10783 10783 10785 10784 10783 10782 10782 10785 10784 10784 10786 10789 10790 10791 10791 10790 10791 10792 10791 10790 10789 10790 10790 10789 10788 10788 10787 10786 10784 10782 10780
10791 10790 10789 10788 10787 10781 10768 10766 10765 10770 10770 10771 10773 10772 10773 10773 10769 10770 10772 10773 10775 10775 10773 10771 10770 10772 10773 10773 10774 10777 10779 10780 10780 10781 10781 10781 10781 10781 10780 10781 10782 10781 10779 10780 10780 10778 10776 10773 10771
10783 10783 10783 10782 10777 10770 10765 10759 10759 10763 10763 10763 10766 10769 10769 10766 10762 10763 10765 10764 10766 10763 10761 10758 10761 10761 10760 10762 10763 10769 10770 10770 10771 10771 10771 10772 10772 10771 10770 10770 10771 10770 10770 10771 10770 10770 10767 10765 10762
10775 10775 10776 10775 10769 10761 10756 10751 10753 10753 10755 10757 10763 10764 10760 10756 10756 10754 10754 10753 10754 10754 10753 10753 10753 10752 10752 10751 10753 10758 10762 10762 10763 10763 10763 10763 10763 10761 10761 10761 10761 10761 10762 10762 10760 10760 10760 10758 10754
10768 10767 10770 10767 10759 10754 10747 10740 10745 10743 10746 10751 10753 10756 10755 10750 10749 10745 10744 10744 10745 10745 10743 10743 10744 10745 10743 10741 10742 10747 10753 10754 10754 10754 10753 10752 10753 10752 10752 10752 10752 10752 10752 10753 10751 10750 10749 10748 10747
10760 10759 10761 10757 10749 10744 10736 10735 10740 10736 10740 10737 10741 10744 10744 10745 10740 10737 10737 10737 10738 10737 10735 10734 10735 10734 10735 10734 10733 10734 10742 10745 10744 10744 10744 10743 10744 10743 10743 10742 10742 10743 10743 10742 10742 10740 10739 10739 10738
10750 10752 10751 10746 10740 10733 10725 10731 10729 10730 10728 10726 10730 10735 10736 10736 10733 10728 10727 10728 10728 10729 10728 10726 10725 10725 10724 10724 10725 10724 10729 10736 10736 10736 10735 10734 10732 10732 10733 10734 10735 10734 10731 10731 10730 10729 10729 10731 10729
10741 10743 10740 10735 10727 10727 10717 10722 10721 10720 10717 10716 10720 10724 10727 10728 10727 10722 10720 10718 10719 10719 10720 10719 10716 10718 10717 10716 10716 10716 10719 10726 10727 10726 10722 10721 10720 10722 10723 10723 10724 10722 10720 10720 10719 10719 10719 10720 10720
10728 10731 10730 10723 10719 10717 10706 10711 10712 10713 10708 10704 10706 10709 10713 10715 10716 10716 10712 10709 10709 10708 10706 10706 10706 10709 10707 10707 10707 10708 10710 10713 10715 10711 10712 10711 10713 10714 10713 10713 10713 10711 10710 10708 10707 10708 10706 10706 10707
10717 10721 10716 10711 10708 10708 10700 10701 10696 10699 10699 10692 10692 10692 10697 10700 10703 10705 10701 10699 10700 10697 10693 10694 10693 10693 10698 10697 10696 10696 10697 10697 10701 10703 10704 10703 10704 10704 10703 10704 10702 10700 10699 10696 10696 10696 10694 10691 10692
10706 10708 10701 10699 10696 10696 10696 10691 10686 10686 10684 10678 10675 10678 10680 10682 10685 10687 10687 10686 10688 10688 10684 10682 10681 10680 10681 10685 10686 10687 10688 10686 10690 10694 10693 10693 10694 10693 10694 10693 10692 10689 10688 10686 10684 10682 10677 10673 10675
10694 10692 10688 10687 10683 10684 10686 10682 10677 10675 10672 10667 10664 10661 10664 10666 10669 10672 10673 10673 10672 10674 10676 10671 10669 10669 10671 10674 10676 10677 10678 10676 10679 10684 10684 10684 10683 10682 10683 10682 10682 10679 10678 10675 10673 10668 10661 10660 10661
10679 10677 10675 10674 10671 10670 10671 10670 10668 10663 10660 10653 10649 10648 10648 10649 10650 10653 10655 10657 10657 10657 10659 10661 10658 10657 10661 10665 10667 10669 10668 10667 10670 10673 10675 10674 10673 10672 10672 10673 10673 10670 10667 10665 10660 10656 10651 10653 10655
10660 10662 10661 10658 10656 10654 10659 10658 10656 10653 10641 10642 10636 10633 10632 10631 10631 10634 10633 10637 10639 10641 10643 10646 10645 10644 10648 10655 10657 10659 10659 10657 10661 10664 10666 10664 10663 10662 10661 10663 10662 10660 10656 10652 10648 10642 10640 10644 10649
10644 10646 10647 10641 10633 10640 10644 10651 10641 10634 10629 10627 10624 10620 10617 10615 10612 10614 10615 10617 10616 10621 10624 10630 10631 10631 10634 10641 10648 10650 10649 10648 10652 10654 10654 10654 10654 10652 10652 10652 10651 10650 10646 10640 10639 10633 10633 10637 10641
10630 10630 10628 10620 10616 10618 10625 10645 10624 10614 10615 10614 10608 10603 10603 10599 10597 10595 10593 10596 10595 10600 10607 10609 10615 10617 10620 10626 10635 10638 10640 10639 10643 10645 10645 10645 10645 10643 10643 10642 10641 10639 10634 10629 10627 10624 10624 10630 10635
10610 10615 10612 10606 10590 10594 10605 10624 10611 10596 10592 10594 10590 10586 10581 10580 10579 10574 10574 10575 10577 10581 10586 10593 10599 10602 10607 10611 10619 10625 10629 10631 10633 10633 10635 10636 10636 10635 10633 10632 10630 10628 10623 10618 10615 10615 10616 10622 10628
10592 10592 10592 10586 10573 10574 10584 10601 10590 10579 10573 10572 10569 10565 10563 10562 10559 10552 10553 10555 10557 10561 10567 10574 10581 10589 10590 10594 10606 10613 10617 10620 10619 10621 10624 10626 10626 10626 10623 10622 10619 10616 10613 10607 10605 10607 10607 10613 10619
10573 10570 10570 10563 10556 10557 10560 10579 10565 10554 10554 10551 10547 10543 10541 10540 10540 10537 10534 10534 10538 10541 10547 10552 10560 10571 10576 10581 10590 10596 10603 10607 10610 10613 10616 10617 10616 10618 10615 10613 10608 10606 10602 10598 10597 10600 10601 10609 10615
10551 10548 10548 10546 10534 10540 10538 10553 10547 10535 10529 10521 10520 10519 10517 10521 10520 10517 10515 10515 10518 10521 10525 10532 10541 10551 10561 10566 10571 10577 10589 10598 10599 10602 10605 10605 10607 10607 10607 10606 10601 10597 10593 10591 10592 10596 10599 10606 10610
10526 10528 10524 10526 10509 10512 10512 10530 10523 10511 10501 10502 10499 10493 10498 10501 10500 10496 10493 10494 10497 10503 10507 10514 10520 10530 10540 10548 10553 10564 10577 10586 10588 10590 10592 10592 10598 10597 10598 10596 10593 10590 10586 10585 10589 10593 10596 10601 10606
10507 10497 10501 10499 10493 10495 10484 10490 10507 10482 10487 10481 10469 10475 10477 10477 10478 10473 10472 10474 10480 10485 10488 10496 10502 10510 10518 10528 10539 10550 10563 10571 10574 10577 10580 10584 10588 10588 10588 10585 10585 10583 10580 10581 10585 10588 10591 10595 10599
10481 10471 10472 10471 10467 10468 10478 10446 10490 10458 10469 10455 10445 10450 10452 10452 10453 10452 10453 10457 10463 10468 10472 10478 10485 10493 10503 10515 10524 10536 10550 10558 10563 10569 10573 10575 10577 10580 10579 10577 10576 10574 10573 10575 10578 10582 10585 10588 10592
10453 10448 10445 10442 10442 10448 10450 10429 10461 10440 10438 10439 10433 10431 10431 10431 10432 10433 10437 10442 10449 10452 10456 10463 10471 10481 10490 10501 10513 10525 10537 10546 10552 10559 10565 10566 10567 10569 10570 10568 10566 10565 10565 10569 10571 10574 10577 10580 10584
10427 10424 10421 10418 10420 10423 10422 10424 10419 10417 10419 10417 10416 10413 10414 10414 10416 10419 10425 10430 10438 10442 10447 10455 10464 10473 10482 10494 10505 10518 10528 10537 10543 10552 10557 10557 10559 10560 10558 10556 10556 10555 10556 10559 10563 10566 10569 10572 10575
10396 10397 10395 10395 10400 10398 10397 10405 10402 10401 10401 10397 10396 10395 10396 10400 10403 10408 10415 10421 10431 10434 10442 10449 10459 10468 10478 10488 10501 10511 10523 10532 10538 10543 10546 10548 10549 10550 10548 10546 10545 10545 10546 10550 10553 10556 10559 10562 10565
10384 10375 10371 10368 10378 10377 10387 10380 10385 10384 10380 10380 10383 10382 10384 10389 10393 10399 10408 10416 10424 10429 10437 10447 10458 10467 10477 10487 10499 10509 10519 10525 10530 10534 10537 10535 10536 10537 10537 10536 10534 10535 10537 10540 10544 10546 10549 10551 10554
10354 10358 10348 10345 10350 10358 10371 10368 10366 10366 10363 10368 10368 10371 10375 10379 10384 10394 10403 10409 10416 10424 10433 10442 10453 10464 10475 10484 10494 10502 10510 10515 10520 10523 10524 10524 10524 10526 10526 10525 10524 10524 10527 10531 10536 10537 10538 10539 10542
10333 10339 10337 10336 10335 10340 10352 10353 10348 10350 10354 10356 10359 10363 10367 10371 10379 10388 10395 10403 10410 10419 10427 10437 10447 10457 10469 10480 10486 10494 10499 10504 10508 10511 10513 10513 10513 10515 10516 10515 10514 10514 10518 10523 10527 10528 10529 10530 10533
10315 10311 10314 10323 10327 10327 10334 10336 10335 10338 10343 10345 10349 10352 10359 10364 10373 10381 10389 10397 10405 10412 10422 10430 10440 10450 10460 10467 10475 10481 10487 10492 10497 10501 10501 10501 10501 10503 10505 10505 10504 10506 10510 10516 10519 10519 10521 10522 10524